Starlink 34273

operational
NORAD ID: 64905 Int'l Des: 2025-157 Owner: SPXS Country: US Constellation: starlink
LEOCIRCULAR

关于 Starlink 34273

正在加载描述...

实时位置

正在加载3D地球...

即将过境

高度历史

Altitude vs Time

uPlot chart will show altitude changes over time

两行轨道根数

1 64905U 25157B 26063.15083776 .00038822 00000-0 13154-2 0 9997
2 64905 53.1603 11.5482 0000990 75.4957 284.6153 15.30215637 35280
Epoch: Mar 4, 2026 • Age: 8 hours

当前状态

高度 493.0 km
速度 7.62 km/s
星下点 -50.06°S, 25.67°E
发射日期 Jul 26, 2025
运行时间 0.6 years
类型 internet

技术详情

分类 Payload
质量 575.00 kg
干质量 530.00 kg
总质量 575.00 kg
长度 0.30 m
直径 4.10 m
跨度 29.00 m
形状 Box + pan
制造商 SPXS
平台类型 Starlink V2MO
阶段状态 In Orbit
所有者/国家 SPXS/US

大型星座

Loading constellations...